Date String (YYYY-MM-DD hh:mm:ss) UTC,Instrument flags,Ambient pressure (hPa),Sample flow (lpm),Bypass flow (lpm),Sample temperature (°C),Ambient temperature (°C),ASC tube jacket temperature (°C),LED temperature (°C),Box temperature (°C),Sample RH (%),Span deviation,Mass concentration (μg/m³),Mass concentration (μg/m³),Mass concentration (μg/m³)
DateTimeUTC,F1_M11,P_M11,Q1_M11,Q2_M11,T1_M11,T2_M11,T3_M11,T4_M11,T5_M11,U1_M11,ZSPAN_M11,X0_M11,X2_M11,X1_M11
2022-11-22 13:00:00,,0829.0,4.99,0.00,22.1,20.7,00.0,31.1,24.0,09.0,0000.0,0010.83,0005.87,0005.66
2022-11-22 13:01:00,,0829.1,5.00,0.00,22.1,20.7,00.0,31.1,23.9,09.1,0000.0,0010.59,0005.83,0005.62
2022-11-22 13:02:00,,0829.1,5.01,0.00,22.1,20.6,00.0,31.1,23.9,09.1,0000.0,0010.72,0005.84,0005.60
2022-11-22 13:03:00,,0829.1,4.98,0.00,22.1,20.6,00.0,31.0,23.9,09.1,0000.0,0010.82,0005.86,0005.57
2022-11-22 13:04:00,,0829.1,5.00,0.00,22.0,20.6,00.0,31.0,23.9,09.2,0000.0,0010.80,0005.85,0005.57
2022-11-22 13:05:00,,0829.1,5.01,0.00,22.0,20.6,00.0,31.0,23.8,09.3,0000.0,0010.89,0005.90,0005.60
2022-11-22 13:06:00,,0829.1,5.01,0.00,22.0,20.6,00.0,31.0,23.8,09.3,0005.2,0010.99,0005.96,0005.65
2022-11-22 13:07:00,,0829.0,4.98,0.00,22.0,20.6,00.0,31.0,23.8,09.2,0004.2,0011.10,0006.01,0005.67
2022-11-22 13:08:00,,0829.1,5.01,0.00,22.0,20.6,00.0,31.0,23.8,09.1,0000.0,0011.28,0006.08,0005.72
2022-11-22 13:09:00,,0829.1,5.01,0.00,22.0,20.6,00.0,31.0,23.8,09.0,0012.2,0010.49,0006.09,0005.72
2022-11-22 13:10:00,,0829.2,4.99,0.00,22.1,21.3,00.0,30.9,24.0,09.0,0011.6,0009.65,0006.04,0005.68
2022-11-22 13:11:00,,0829.2,4.99,0.00,22.2,22.0,00.0,30.9,24.1,08.8,0009.5,0009.37,0006.01,0005.65
2022-11-22 13:12:00,,0829.2,5.01,0.00,22.2,22.0,00.0,31.0,24.2,08.7,0008.7,0009.19,0005.95,0005.60
2022-11-22 13:13:00,,0829.2,4.99,0.00,22.2,21.7,00.0,31.0,24.2,08.5,0009.3,0009.04,0005.87,0005.53
2022-11-22 13:14:00,,0829.2,5.00,0.00,22.2,21.5,00.0,31.1,24.1,08.1,0008.8,0008.80,0005.70,0005.38
2022-11-22 13:15:00,,0829.3,5.02,0.00,22.2,21.3,00.0,31.1,24.1,07.7,0000.0,0008.51,0005.46,0005.15
2022-11-22 13:16:00,,0829.3,4.98,0.00,22.2,21.2,00.0,31.1,24.1,07.6,0000.0,0008.26,0005.24,0004.93
2022-11-22 13:17:00,,0829.3,5.02,0.00,22.2,21.1,00.0,31.1,24.1,07.7,0000.0,0007.87,0004.94,0004.67
2022-11-22 13:18:00,,0829.2,4.99,0.00,22.2,21.0,00.0,31.1,24.0,07.7,0000.0,0007.52,0004.67,0004.41
2022-11-22 13:19:00,,0829.3,4.99,0.00,22.2,20.9,00.0,31.1,24.0,07.7,0000.0,0006.96,0004.42,0004.19
2022-11-22 13:20:00,,0829.2,5.02,0.00,22.2,20.8,00.0,31.1,24.0,07.8,0000.0,0006.88,0004.21,0003.98
2022-11-22 13:21:00,,0829.2,4.99,0.00,22.1,20.7,00.0,31.1,24.0,07.8,0000.0,0006.46,0004.01,0003.79
2022-11-22 13:22:00,,0829.3,4.99,0.00,22.1,20.7,00.0,31.1,23.9,07.8,0000.0,0006.02,0003.82,0003.61
2022-11-22 13:23:00,,0829.2,5.02,0.00,22.1,20.6,00.0,31.1,23.9,07.8,0000.0,0005.75,0003.66,0003.44
2022-11-22 13:24:00,,0829.3,4.99,0.00,22.1,20.5,00.0,31.1,23.9,07.8,0000.0,0005.47,0003.50,0003.28
2022-11-22 13:25:00,,0829.3,5.00,0.00,22.0,20.5,00.0,31.1,23.9,07.9,0000.0,0005.24,0003.40,0003.21
2022-11-22 13:26:00,,0829.2,5.01,0.00,22.0,20.4,00.0,31.1,23.8,07.9,0000.0,0005.38,0003.41,0003.20
2022-11-22 13:27:00,,0829.3,4.98,0.00,22.0,20.4,00.0,31.0,23.8,07.9,0000.0,0005.47,0003.42,0003.20
2022-11-22 13:28:00,,0829.3,5.01,0.00,22.0,20.4,00.0,31.0,23.8,07.9,0000.0,0005.48,0003.44,0003.21
2022-11-22 13:29:00,,0829.4,5.00,0.00,22.0,20.4,00.0,31.0,23.7,08.0,0000.0,0006.44,0003.45,0003.23
2022-11-22 13:30:00,,0829.2,4.98,0.00,21.9,20.4,00.0,31.0,23.7,08.0,0000.0,0006.51,0003.47,0003.26
2022-11-22 13:31:00,,0829.3,5.00,0.00,21.9,20.3,00.0,31.0,23.7,08.0,0000.0,0006.22,0003.52,0003.29
2022-11-22 13:32:00,,0829.3,5.01,0.00,21.9,20.8,00.0,30.9,23.8,08.1,0000.0,0006.20,0003.55,0003.33
2022-11-22 13:33:00,,0829.3,5.00,0.00,22.0,21.6,00.0,30.9,24.0,08.3,0000.0,0006.34,0003.61,0003.39
2022-11-22 13:34:00,,0829.4,5.00,0.00,22.1,22.0,00.0,30.9,24.1,08.5,0000.0,0006.59,0003.72,0003.50
2022-11-22 13:35:00,,0829.3,5.00,0.00,22.1,21.7,00.0,30.9,24.1,08.7,0000.0,0006.79,0003.86,0003.65
2022-11-22 13:36:00,,0829.4,4.99,0.00,22.1,21.4,00.0,31.0,24.0,08.6,0000.0,0007.12,0004.01,0003.78
2022-11-22 13:37:00,,0829.4,5.00,0.00,22.1,21.2,00.0,31.0,24.0,08.5,0000.0,0007.26,0004.12,0003.89
2022-11-22 13:38:00,,0829.4,5.01,0.00,22.1,21.0,00.0,31.0,23.9,08.5,0000.0,0007.39,0004.24,0004.01
2022-11-22 13:39:00,,0829.5,4.98,0.00,22.1,20.9,00.0,31.0,23.9,08.6,0000.0,0007.60,0004.40,0004.14
2022-11-22 13:40:00,,0829.5,5.00,0.00,22.1,20.8,00.0,31.0,23.8,08.7,0000.0,0007.29,0004.56,0004.30
2022-11-22 13:41:00,,0829.5,5.00,0.00,22.0,20.7,00.0,31.0,23.8,08.8,0000.0,0007.39,0004.70,0004.44
2022-11-22 13:42:00,,0829.5,5.01,0.00,22.0,20.6,00.0,31.0,23.8,08.5,0000.0,0007.61,0004.79,0004.55
2022-11-22 13:43:00,,0829.5,4.99,0.00,22.0,20.5,00.0,31.0,23.8,08.5,0000.0,0007.80,0004.90,0004.62
2022-11-22 13:44:00,,0829.5,5.01,0.00,22.0,20.5,00.0,31.0,23.8,08.4,0000.0,0007.84,0004.95,0004.68
2022-11-22 13:45:00,,0829.5,5.01,0.00,22.0,20.4,00.0,31.0,23.7,08.3,0000.0,0007.90,0004.91,0004.66
2022-11-22 13:46:00,,0829.5,5.01,0.00,21.9,20.4,00.0,31.0,23.7,08.2,0000.0,0008.10,0004.84,0004.59
2022-11-22 13:47:00,,0829.5,4.98,0.00,21.9,20.3,00.0,30.9,23.6,08.2,0000.0,0008.04,0004.76,0004.51
2022-11-22 13:48:00,,0829.5,5.00,0.00,21.9,20.3,00.0,30.9,23.7,08.2,0000.0,0007.98,0004.71,0004.47
2022-11-22 13:49:00,,0829.5,5.02,0.00,21.9,20.3,00.0,30.9,23.6,08.2,0000.0,0007.89,0004.64,0004.40
2022-11-22 13:50:00,,0829.5,4.99,0.00,21.9,20.3,00.0,30.9,23.6,08.2,0000.0,0007.94,0004.54,0004.32
2022-11-22 13:51:00,,0829.5,5.00,0.00,21.9,21.1,00.0,30.8,23.8,08.1,0000.0,0008.57,0004.43,0004.20
2022-11-22 13:52:00,,0829.5,5.01,0.00,22.0,21.9,00.0,30.8,24.0,08.0,0000.0,0008.49,0004.33,0004.06
2022-11-22 13:53:00,,0829.5,4.99,0.00,22.1,21.9,00.0,30.8,24.0,08.0,0000.0,0008.65,0004.22,0003.96
2022-11-22 13:54:00,,0829.5,5.01,0.00,22.1,21.6,00.0,30.9,24.0,08.1,0000.0,0008.74,0004.14,0003.89
2022-11-22 13:55:00,,0829.4,5.01,0.00,22.1,21.3,00.0,30.9,24.0,08.1,0000.0,0008.74,0004.12,0003.85
2022-11-22 13:56:00,,0829.4,4.98,0.00,22.1,21.1,00.0,30.9,23.9,08.0,0000.0,0008.66,0004.10,0003.82
2022-11-22 13:57:00,,0829.4,5.01,0.00,22.0,20.9,00.0,30.9,23.9,08.0,0000.0,0008.28,0004.09,0003.81
2022-11-22 13:58:00,,0829.4,5.01,0.00,22.0,20.8,00.0,30.9,23.9,08.0,0000.0,0008.21,0004.06,0003.80
2022-11-22 13:59:00,,0829.4,5.00,0.00,22.0,20.7,00.0,30.9,23.8,08.0,0000.0,0008.27,0004.06,0003.79
